DW1384 Weather Reports


time (UTC)temp
C
wind
direction
speed
KPH
gust
KPH
rain 1hr
cm
rain 24hr
cm
rain mn
cm
humidity
%
barometer
mb
20260507161408 14 35 0.0 0.0 0.00 0.00 0.00 62 1015.5
20260507161127 15 24 0.0 0.0 0.00 0.00 0.00 61 1015.5
20260507160408 15 284 0.0 0.0 0.00 0.00 0.00 58 1015.4
20260507155907 15 26 0.0 0.0 0.00 0.00 0.00 59 1015.4
20260507155627 14 357 0.0 0.0 0.00 0.00 0.00 60 1015.4
20260507154907 14 316 0.0 0.0 0.00 0.00 0.00 62 1015.4
20260507154405 14 4 0.0 0.0 0.00 0.00 0.00 64 1015.3
20260507153904 13 323 0.0 0.0 0.00 0.00 0.00 62 1015.3
20260507153404 14 317 0.0 0.0 0.00 0.00 0.00 61 1015.3
20260507152905 15 311 0.0 0.0 0.00 0.00 0.00 62 1015.3
20260507152406 14 316 0.0 0.0 0.00 0.00 0.00 65 1015.2
20260507151903 13 353 0.0 0.0 0.00 0.00 0.00 68 1015.1
20260507151357 13 114 0.0 0.0 0.00 0.00 0.00 67 1015.1
20260507151115 13 22 0.0 0.0 0.00 0.00 0.00 67 1015.1
20260507150345 13 343 0.0 0.0 0.00 0.00 0.00 67 1015.0
20260507150059 13 15 0.0 0.0 0.00 0.00 0.00 68 1015.1
20260507145334 12 50 0.0 0.0 0.00 0.00 0.00 68 1015.0
20260507144827 12 31 0.0 0.0 0.00 0.00 0.00 68 1015.0
20260507144324 13 60 0.0 0.0 0.00 0.00 0.00 68 1014.9
20260507143815 13 5 0.0 0.0 0.00 0.00 0.00 69 1015.0
20260507143310 13 315 0.0 0.0 0.00 0.00 0.00 69 1014.9
20260507142803 13 16 0.0 0.0 0.00 0.00 0.00 69 1015.0
20260507142516 13 343 0.0 0.0 0.00 0.00 0.00 69 1015.0
20260507141751 13 22 0.0 0.0 0.00 0.00 0.00 68 1014.9
20260507141247 13 26 0.0 0.0 0.00 0.00 0.00 69 1014.9
20260507140740 13 357 0.0 0.0 0.00 0.00 0.00 69 1014.9
20260507140233 12 338 0.0 0.0 0.00 0.00 0.00 69 1014.9
20260507135727 13 50 0.0 0.0 0.00 0.00 0.00 68 1014.9
20260507135221 13 314 0.0 0.0 0.00 0.00 0.00 68 1015.0
20260507134715 13 24 0.0 0.0 0.00 0.00 0.00 69 1014.9
20260507134211 13 348 0.0 0.0 0.00 0.00 0.00 68 1014.8
20260507133703 13 20 0.0 0.0 0.00 0.00 0.00 66 1014.8
20260507133159 13 37 0.0 0.0 0.00 0.00 0.00 67 1014.8
20260507132651 13 9 0.0 0.0 0.00 0.00 0.00 67 1014.8
20260507132145 13 326 0.0 0.0 0.00 0.00 0.00 65 1014.8
20260507131639 13 343 0.0 0.0 0.00 0.00 0.00 66 1014.8
20260507131135 13 328 0.0 0.0 0.00 0.00 0.00 66 1014.7
20260507130640 13 332 0.0 0.0 0.00 0.00 0.00 67 1014.7
20260507130122 13 314 0.0 0.0 0.00 0.00 0.00 67 1014.7
20260507125615 13 357 0.0 0.0 0.00 0.00 0.00 67 1014.7
20260507125109 13 17 0.0 0.0 0.00 0.00 0.00 68 1014.6
20260507124603 13 357 0.0 0.0 0.00 0.00 0.00 67 1014.6
20260507124057 13 15 0.0 0.0 0.00 0.00 0.00 67 1014.6
20260507123552 13 3 0.0 0.0 0.00 0.00 0.00 66 1014.5
20260507123045 13 348 0.0 0.0 0.00 0.00 0.00 65 1014.5
20260507122539 13 343 0.0 0.0 0.00 0.00 0.00 65 1014.4
20260507122033 14 32 0.0 0.0 0.00 0.00 0.00 63 1014.3
20260507121542 14 353 0.0 0.0 0.00 0.00 0.00 61 1014.3
20260507121021 14 353 0.0 0.0 0.00 0.00 0.00 61 1014.3
20260507120515 14 317 0.0 0.0 0.00 0.00 0.00 58 1014.4
20260507120011 14 319 0.0 0.0 0.00 0.00 0.00 61 1014.3
20260507115954 14 306 0.0 0.0 0.00 0.00 0.00 61 1014.3
20260507114958 14 310 0.0 0.0 0.00 0.00 0.00 60 1014.4
20260507114711 13 51 0.0 0.0 0.00 0.00 0.00 63 1014.4
20260507113955 13 321 0.0 0.0 0.00 0.00 0.00 64 1014.4
20260507113452 13 6 0.0 0.0 0.00 0.00 0.00 63 1014.4
20260507112954 13 315 0.0 0.0 0.00 0.00 0.00 61 1014.4
20260507112453 13 10 0.0 0.0 0.00 0.00 0.00 62 1014.4
20260507111952 13 305 0.0 0.0 0.00 0.00 0.00 61 1014.4
20260507111449 13 337 0.0 0.0 0.00 0.00 0.00 61 1014.4
20260507110949 14 302 0.0 0.0 0.00 0.00 0.00 65 1014.3
20260507110448 13 228 0.0 0.0 0.00 0.00 0.00 66 1014.3
20260507105948 13 59 0.0 0.0 0.00 0.00 0.00 66 1014.4
20260507105446 13 316 0.0 0.0 0.00 0.00 0.00 66 1014.5
20260507104943 13 348 0.0 0.0 0.00 0.00 0.00 66 1014.5
20260507104455 13 309 0.0 0.0 0.00 0.00 0.00 67 1014.4
20260507103941 12 47 0.0 0.0 0.00 0.00 0.00 68 1014.5
20260507103436 12 6 0.0 0.0 0.00 0.00 0.00 69 1014.5
20260507102934 12 12 0.0 0.0 0.00 0.00 0.00 70 1014.4
20260507102434 12 252 0.0 0.0 0.00 0.00 0.00 67 1014.3
20260507101935 13 348 0.0 0.0 0.00 0.00 0.00 67 1014.4
20260507101435 13 276 0.0 0.0 0.00 0.00 0.00 67 1014.2
20260507100934 13 312 0.0 0.0 0.00 0.00 0.00 69 1014.2
20260507100434 12 5 0.0 0.0 0.00 0.00 0.00 69 1014.2
20260507095934 12 353 0.0 0.0 0.00 0.00 0.00 68 1014.2
20260507095433 13 315 0.0 0.0 0.00 0.00 0.00 70 1014.1
20260507095156 12 45 0.0 0.0 0.00 0.00 0.00 72 1014.0
20260507094436 11 343 0.0 0.0 0.00 0.00 0.00 72 1014.1
20260507093935 11 307 0.0 0.0 0.00 0.00 0.00 73 1014.0
20260507093707 11 343 0.0 0.0 0.00 0.00 0.00 73 1014.0
20260507092931 11 329 0.0 0.0 0.00 0.00 0.00 76 1014.0
20260507092431 11 288 0.0 0.0 0.00 0.00 0.00 76 1013.9
20260507091932 10 282 0.0 0.0 0.00 0.00 0.00 78 1014.0
20260507091433 10 1 0.0 0.0 0.00 0.00 0.00 77 1013.9
20260507090929 10 302 0.0 0.0 0.00 0.00 0.00 76 1013.9
20260507090431 11 311 0.0 0.0 0.00 0.00 0.00 76 1013.9
20260507085928 11 10 0.0 0.0 0.00 0.00 0.00 79 1013.8
20260507085425 10 357 0.0 0.0 0.00 0.00 0.00 79 1013.7
20260507085151 10 14 0.0 0.0 0.00 0.00 0.00 79 1013.7
20260507084424 10 339 0.0 0.0 0.00 0.00 0.00 80 1013.7
20260507083923 10 319 0.0 0.0 0.00 0.00 0.00 80 1013.6
20260507083423 10 323 0.0 0.0 0.00 0.00 0.00 79 1013.5
20260507082922 10 335 0.0 0.0 0.00 0.00 0.00 80 1013.6
20260507082422 11 328 0.0 0.0 0.00 0.00 0.00 80 1013.7
20260507081921 11 306 0.0 0.0 0.00 0.00 0.00 81 1013.6
20260507081423 11 343 0.0 0.0 0.00 0.00 0.00 81 1013.5
20260507080921 10 353 0.0 0.0 0.00 0.00 0.00 82 1013.5
20260507080436 10 311 0.0 0.0 0.00 0.00 0.00 82 1013.4
20260507075923 10 310 0.0 0.0 0.00 0.00 0.00 84 1013.4
20260507075422 10 343 0.0 0.0 0.00 0.00 0.00 84 1013.4
20260507074923 10 5 0.0 0.0 0.00 0.00 0.00 85 1013.2
20260507074420 9 334 0.0 0.0 0.00 0.00 0.00 86 1013.2
20260507073919 8 337 0.0 0.0 0.00 0.00 0.00 86 1013.3
20260507073419 8 300 0.0 0.0 0.00 0.00 0.00 86 1013.2
20260507073149 8 298 0.0 0.0 0.00 0.00 0.00 87 1013.2
20260507072418 8 317 0.0 0.0 0.00 0.00 0.00 87 1013.1
20260507071918 8 298 0.0 0.0 0.00 0.00 0.00 88 1013.1
20260507071415 8 286 0.0 0.0 0.00 0.00 0.00 88 1013.0
20260507070929 8 294 0.0 0.0 0.00 0.00 0.00 88 1013.0
20260507070417 8 319 0.0 0.0 0.00 0.00 0.00 88 1013.0
20260507070134 8 313 0.0 0.0 0.00 0.00 0.00 89 1012.9
20260507065637 8 294 0.0 0.0 0.00 0.00 0.00 89 1012.9
20260507064914 8 331 0.0 0.0 0.00 0.00 0.00 89 1012.9
20260507064333 7 330 0.0 0.0 0.00 0.00 0.00 89 1012.9
20260507063833 7 305 0.0 0.0 0.00 0.00 0.00 89 1012.9
20260507063335 7 321 0.0 0.0 0.00 0.00 0.00 90 1012.8
20260507063056 7 290 0.0 0.0 0.00 0.00 0.00 90 1012.7
20260507062330 7 343 0.0 0.0 0.00 0.00 0.00 90 1012.5
20260507061831 7 314 0.0 0.0 0.00 0.00 0.00 90 1012.5
20260507061331 7 319 0.0 0.0 0.00 0.00 0.00 90 1012.5
20260507060830 7 332 0.0 0.0 0.00 0.00 0.00 90 1012.4
20260507060329 7 309 0.0 0.0 0.00 0.00 0.00 90 1012.3
20260507060052 7 317 0.0 0.0 0.00 0.00 0.00 90 1012.3
20260507055329 7 307 0.0 0.0 0.00 0.00 0.00 90 1012.2
20260507054831 7 312 0.0 0.0 0.00 0.00 0.00 90 1012.2
20260507054326 7 321 0.0 0.0 0.00 0.00 0.00 90 1012.1
20260507054306 7 309 0.0 0.0 0.00 0.00 0.00 90 1012.0
20260507053325 7 309 0.0 0.0 0.00 0.00 0.00 90 1012.0
20260507052826 7 330 0.0 0.0 0.00 0.00 0.00 90 1011.9
20260507052325 7 12 0.0 0.0 0.00 0.00 0.00 90 1011.8
20260507051826 7 348 0.0 0.0 0.00 0.00 0.00 90 1011.7
20260507051326 7 312 0.0 0.0 0.00 0.00 0.00 90 1011.7
20260507051045 7 311 0.0 0.0 0.00 0.00 0.00 90 1011.7
20260507050326 7 286 0.0 0.0 0.00 0.00 0.00 90 1011.7
20260507045821 7 301 0.0 0.0 0.00 0.00 0.00 90 1011.6
20260507045323 7 318 0.0 0.0 0.00 0.00 0.00 90 1011.6
20260507044821 7 343 0.0 0.0 0.00 0.00 0.00 90 1011.5
20260507044321 7 343 0.0 0.0 0.00 0.00 0.00 90 1011.4
20260507043821 7 276 0.0 0.0 0.00 0.00 0.00 90 1011.5
20260507043322 7 322 0.0 0.0 0.00 0.00 0.00 90 1011.4
20260507042822 7 321 0.0 0.0 0.00 0.00 0.00 90 1011.3
20260507042321 7 318 0.0 0.0 0.00 0.00 0.00 90 1011.3
20260507041821 7 319 0.0 0.0 0.00 0.00 0.00 90 1011.2
20260507041317 7 307 0.0 0.0 0.00 0.00 0.00 90 1011.2
20260507040819 7 332 0.0 0.0 0.00 0.00 0.00 90 1011.2
20260507040318 7 5 0.0 0.0 0.00 0.00 0.00 90 1011.1
20260507040302 7 324 0.0 0.0 0.00 0.00 0.00 90 1011.0
20260507035317 7 315 0.0 0.0 0.00 0.00 0.00 90 1011.0
20260507035042 7 359 0.0 0.0 0.00 0.00 0.00 90 1011.0
20260507034537 7 336 0.0 0.0 0.00 0.00 0.00 90 1011.0
20260507033819 7 328 0.0 0.0 0.00 0.00 0.00 90 1011.0
20260507033317 7 309 0.0 0.0 0.00 0.00 0.00 90 1010.9
20260507032813 7 310 0.0 0.0 0.00 0.00 0.00 90 1010.9
20260507032315 7 313 0.0 0.0 0.00 0.00 0.00 90 1010.9
20260507031813 7 294 0.0 0.0 0.00 0.00 0.00 90 1010.8
20260507031314 7 315 0.0 0.0 0.00 0.00 0.00 90 1010.8
20260507030814 7 337 0.0 0.0 0.00 0.00 0.00 90 1010.8
20260507030313 7 292 0.0 0.0 0.00 0.00 0.00 90 1010.8
20260507025815 7 309 0.0 0.0 0.00 0.00 0.00 90 1010.7
20260507025313 7 330 0.0 0.0 0.00 0.00 0.00 90 1010.7
20260507024813 7 301 0.0 0.0 0.00 0.00 0.00 90 1010.8
20260507024749 7 315 0.0 0.0 0.00 0.00 0.00 90 1010.7
20260507023809 7 311 0.0 0.0 0.00 0.00 0.00 90 1010.7
20260507023322 7 314 0.0 0.0 0.00 0.00 0.00 90 1010.8
20260507022810 7 302 0.0 0.0 0.00 0.00 0.00 90 1010.7
20260507022309 7 303 0.0 0.0 0.00 0.00 0.00 90 1010.7
20260507021809 7 307 0.0 0.0 0.00 0.00 0.00 90 1010.7
20260507021309 7 287 0.0 0.0 0.00 0.00 0.00 90 1010.6
20260507020810 7 311 0.0 0.0 0.00 0.00 0.00 90 1010.6
20260507020309 7 319 0.0 0.0 0.00 0.00 0.00 90 1010.6
20260507015808 7 303 0.0 0.0 0.00 0.00 0.00 90 1010.6
20260507015318 7 303 0.0 0.0 0.00 0.00 0.00 90 1010.5
20260507014805 7 294 0.0 0.0 0.00 0.00 0.00 90 1010.4
20260507014306 7 297 0.0 0.0 0.00 0.00 0.00 90 1010.4
20260507013806 7 307 0.0 0.0 0.00 0.00 0.00 90 1010.3
20260507013306 7 319 0.0 0.0 0.00 0.00 0.00 90 1010.4
20260507012805 7 298 0.0 0.0 0.00 0.00 0.00 90 1010.4
20260507012533 7 284 0.0 0.0 0.00 0.00 0.00 90 1010.3
20260507011820 7 308 0.0 0.0 0.00 0.00 0.00 90 1010.3
20260507011301 7 291 0.0 0.0 0.00 0.00 0.00 90 1010.3
20260507010801 7 305 0.0 0.0 0.00 0.00 0.00 90 1010.3
20260507010301 7 297 0.0 0.0 0.00 0.00 0.00 90 1010.2
20260507005801 7 292 0.0 0.0 0.00 0.00 0.00 90 1010.2
20260507005259 7 301 0.0 0.0 0.00 0.00 0.00 90 1010.2
20260507004759 7 317 0.0 0.0 0.00 0.00 0.00 90 1010.3
20260507004743 7 316 0.0 0.0 0.00 0.00 0.00 89 1010.2
20260507003758 7 325 0.0 0.0 0.00 0.00 0.00 89 1010.1
20260507003258 7 280 0.0 0.0 0.00 0.00 0.00 89 1010.1
20260507002755 7 292 0.0 0.0 0.00 0.00 0.00 89 1010.1
20260507002516 7 312 0.0 0.0 0.00 0.00 0.00 89 1010.1
20260507001753 7 300 0.0 0.0 0.00 0.00 0.00 89 1010.1
20260507001250 7 309 0.0 0.0 0.00 0.00 0.00 89 1010.0
20260507000804 7 290 0.0 0.0 0.00 0.00 0.00 89 1010.0
20260507000249 7 288 0.0 0.0 0.00 0.00 0.00 89 1010.0
20260506235750 7 303 0.0 0.0 0.00 0.00 0.00 89 1010.0
20260506235258 7 306 0.0 0.0 0.00 0.00 0.00 89 1010.0
20260506235006 7 289 0.0 0.0 0.00 0.00 0.00 89 1010.1
20260506234247 7 303 0.0 0.0 0.00 0.00 0.00 89 1010.0
20260506233744 7 299 0.0 0.0 0.00 0.00 0.00 89 1009.9
20260506233238 7 303 0.0 0.0 0.00 0.00 0.00 89 1009.9
20260506232732 7 297 0.0 0.0 0.00 0.00 0.00 89 1009.9
20260506232226 7 317 0.0 0.0 0.00 0.00 0.00 89 1009.9
20260506231724 7 297 0.0 0.0 0.00 0.00 0.00 89 1009.9
20260506231236 7 317 0.0 0.0 0.00 0.00 0.00 89 1009.9
20260506230723 7 319 0.0 0.0 0.00 0.00 0.00 89 1009.9
20260506230225 7 317 0.0 0.0 0.00 0.00 0.00 89 1009.9
20260506225943 7 313 0.0 0.0 0.00 0.00 0.00 89 1009.8
20260506225222 7 323 0.0 0.0 0.00 0.00 0.00 89 1009.8
20260506224723 7 307 0.0 0.0 0.00 0.00 0.00 89 1009.6
20260506224221 7 353 0.0 0.0 0.00 0.00 0.00 89 1009.6
20260506223721 7 348 0.0 0.0 0.00 0.00 0.00 89 1009.6
20260506223217 7 348 0.0 0.0 0.00 0.00 0.00 89 1009.5
20260506222715 7 348 0.0 0.0 0.00 0.00 0.00 89 1009.6
20260506222441 7 334 0.0 0.0 0.00 0.00 0.00 89 1009.6
20260506221715 7 306 0.0 0.0 0.00 0.00 0.00 89 1009.7
20260506221432 7 303 0.0 0.0 0.00 0.00 0.00 89 1009.6
20260506220715 7 311 0.0 0.0 0.00 0.00 0.00 89 1009.6
20260506220212 7 319 0.0 0.0 0.00 0.00 0.00 89 1009.5
20260506215712 7 336 0.0 0.0 0.00 0.00 0.00 89 1009.5
20260506215210 7 307 0.0 0.0 0.00 0.00 0.00 89 1009.5
20260506214709 7 315 0.0 0.0 0.00 0.00 0.00 89 1009.5
20260506214429 7 1 0.0 0.0 0.00 0.00 0.00 89 1009.5
20260506213707 7 305 0.0 0.0 0.00 0.00 0.00 89 1009.5
20260506213207 8 311 0.0 0.0 0.00 0.00 0.00 89 1009.5
20260506212707 8 309 0.0 0.0 0.00 0.00 0.00 89 1009.4
20260506212206 8 332 0.0 0.0 0.00 0.00 0.00 89 1009.3
20260506211707 8 324 0.0 0.0 0.00 0.00 0.00 89 1009.2
20260506211431 8 272 0.0 0.0 0.00 0.00 0.00 89 1009.2
20260506210707 8 309 0.0 0.0 0.00 0.00 0.00 89 1009.2
20260506210421 8 312 0.0 0.0 0.00 0.00 0.00 89 1009.2
20260506205704 8 305 0.0 0.0 0.00 0.00 0.00 89 1009.1
20260506205203 8 338 0.0 0.0 0.00 0.00 0.00 89 1009.1
20260506204702 8 324 0.0 0.0 0.00 0.00 0.00 89 1009.1
20260506204204 8 303 0.0 0.0 0.00 0.00 0.00 89 1009.1
20260506203702 8 348 0.0 0.0 0.00 0.00 0.00 89 1008.9
20260506203202 8 334 0.0 0.0 0.00 0.00 0.00 89 1008.9
20260506202702 8 332 0.0 0.0 0.00 0.00 0.00 89 1008.8
20260506202202 8 303 0.0 0.0 0.00 0.00 0.00 89 1008.8
20260506201701 8 303 0.0 0.0 0.00 0.00 0.00 88 1008.7
20260506201159 8 312 0.0 0.0 0.00 0.00 0.00 88 1008.7
20260506200658 8 307 0.0 0.0 0.00 0.00 0.00 88 1008.6
20260506200158 8 305 0.0 0.0 0.00 0.00 0.00 88 1008.6
20260506195658 8 313 0.0 0.0 0.00 0.00 0.00 88 1008.5
20260506195158 8 311 0.0 0.0 0.00 0.00 0.00 88 1008.6
20260506194658 8 324 0.0 0.0 0.00 0.00 0.00 88 1008.5
20260506194158 8 348 0.0 0.0 0.00 0.00 0.00 88 1008.6
20260506193700 8 330 0.0 0.0 0.00 0.00 0.00 88 1008.6
20260506193156 8 292 0.0 0.0 0.00 0.00 0.00 88 1008.6
20260506192654 8 311 0.0 0.0 0.00 0.00 0.00 88 1008.6
20260506192155 8 303 0.0 0.0 0.00 0.00 0.00 88 1008.5
20260506191654 8 290 0.0 0.0 0.00 0.00 0.00 88 1008.5
20260506191154 8 284 0.0 0.0 0.00 0.00 0.00 88 1008.4
20260506190654 8 320 0.0 0.0 0.00 0.00 0.00 88 1008.4
20260506190154 8 320 0.0 0.0 0.00 0.00 0.00 88 1008.2
20260506185914 8 348 0.0 0.0 0.00 0.00 0.00 88 1008.1
20260506185155 8 0 0.0 0.0 0.00 0.00 0.00 88 1008.1
20260506184650 8 338 0.0 0.0 0.00 0.00 0.00 88 1008.0
20260506184409 8 306 0.0 0.0 0.00 0.00 0.00 88 1007.9
20260506183652 8 318 0.0 0.0 0.00 0.00 0.00 88 1007.8
20260506183150 8 353 0.0 0.0 0.00 0.00 0.00 88 1007.8
20260506182910 8 290 0.0 0.0 0.00 0.00 0.00 88 1007.8
20260506182150 8 303 0.0 0.0 0.00 0.00 0.00 88 1007.8
20260506181650 8 297 0.0 0.0 0.00 0.00 0.00 88 1007.8
20260506181150 8 317 0.0 0.0 0.00 0.00 0.00 88 1007.7
20260506180650 8 359 0.0 0.0 0.00 0.00 0.00 88 1007.7
20260506180146 8 335 0.0 0.0 0.00 0.00 0.00 88 1007.7
20260506175648 8 359 0.0 0.0 0.00 0.00 0.00 88 1007.6
20260506175415 8 326 0.0 0.0 0.00 0.00 0.00 88 1007.5
20260506174647 8 348 0.0 0.0 0.00 0.00 0.00 88 1007.5
20260506174146 8 338 0.0 0.0 0.00 0.00 0.00 88 1007.4
20260506173647 8 324 0.0 0.0 0.00 0.00 0.00 88 1007.3
20260506173147 8 305 0.0 0.0 0.00 0.00 0.00 88 1007.4
20260506172648 8 307 0.0 0.0 0.00 0.00 0.00 88 1007.3
20260506172146 8 271 0.0 0.0 0.00 0.00 0.00 88 1007.3
20260506171642 8 299 0.0 0.0 0.00 0.00 0.00 88 1007.2
20260506171142 8 299 0.0 0.0 0.00 0.00 0.00 88 1007.2
20260506170643 8 313 0.0 0.0 0.00 0.00 0.00 88 1007.2
20260506170144 8 303 0.0 0.0 0.00 0.00 0.00 88 1007.2
20260506165643 8 303 0.0 0.0 0.00 0.00 0.00 88 1007.2
20260506165145 8 321 0.0 0.0 0.00 0.00 0.00 88 1007.1
20260506164908 8 343 0.0 0.0 0.00 0.00 0.00 88 1007.0
20260506164143 8 338 0.0 0.0 0.00 0.00 0.00 88 1007.0
20260506163642 8 335 0.0 0.0 0.00 0.00 0.00 88 1006.9
20260506163138 8 309 0.0 0.0 0.00 0.00 0.00 88 1007.0
20260506162638 8 307 0.0 0.0 0.00 0.00 0.00 88 1006.9
20260506162409 8 334 0.0 0.0 0.00 0.00 0.00 88 1007.0